Time,TemperatureF,DewpointF,PressureIn,WindDirection,WindDirectionDegrees,WindSpeedMPH,WindSpeedGustMPH,Humidity,HourlyPrecipIn,Conditions,Clouds,dailyrainin,SoftwareType,DateUTC
2013-04-11 00:04:00,75.0,67.7,29.97,North,-999,-999.0,-999.0,78,0.00,,,0.00,WSDL version 420,2013-04-11 04:04:00,
2013-04-11 00:09:00,75.2,67.8,29.97,North,-999,-999.0,-999.0,78,0.00,,,0.00,WSDL version 420,2013-04-11 04:09:00,
2013-04-11 00:14:00,75.2,67.9,29.97,North,-999,-999.0,-999.0,78,0.00,,,0.00,WSDL version 420,2013-04-11 04:14:00,
2013-04-11 00:19:00,75.2,67.9,29.97,North,-999,-999.0,-999.0,78,0.00,,,0.00,WSDL version 420,2013-04-11 04:19:00,
2013-04-11 00:24:00,75.1,67.7,29.97,North,-999,-999.0,-999.0,78,0.00,,,0.00,WSDL version 420,2013-04-11 04:24:00,
2013-04-11 00:29:00,75.0,67.7,29.97,North,-999,-999.0,-999.0,78,0.00,,,0.00,WSDL version 420,2013-04-11 04:29:00,
2013-04-11 00:34:00,75.0,67.7,29.97,North,-999,-999.0,-999.0,78,0.00,,,0.00,WSDL version 420,2013-04-11 04:34:00,
2013-04-11 00:39:00,75.0,67.7,29.97,North,-999,-999.0,-999.0,78,0.00,,,0.00,WSDL version 420,2013-04-11 04:39:00,
2013-04-11 00:44:00,75.0,67.4,29.97,North,-999,-999.0,-999.0,77,0.00,,,0.00,WSDL version 420,2013-04-11 04:44:00,
2013-04-11 00:49:00,74.8,67.1,29.97,North,-999,-999.0,-999.0,77,0.00,,,0.00,WSDL version 420,2013-04-11 04:49:00,
2013-04-11 00:54:00,74.8,67.1,29.97,North,-999,-999.0,-999.0,77,0.00,,,0.00,WSDL version 420,2013-04-11 04:54:00,
2013-04-11 00:59:00,74.8,67.2,29.97,North,-999,-999.0,-999.0,77,0.00,,,0.00,WSDL version 420,2013-04-11 04:59:00,
2013-04-11 01:04:00,75.0,67.6,29.97,North,-999,-999.0,-999.0,77,0.00,,,0.00,WSDL version 420,2013-04-11 05:04:00,
2013-04-11 01:09:00,74.8,67.1,29.94,North,-999,-999.0,-999.0,77,0.00,,,0.00,WSDL version 420,2013-04-11 05:09:00,
2013-04-11 01:14:00,74.8,67.1,29.94,North,-999,-999.0,-999.0,77,0.00,,,0.00,WSDL version 420,2013-04-11 05:14:00,
2013-04-11 01:19:00,74.8,67.1,29.94,North,-999,-999.0,-999.0,77,0.00,,,0.00,WSDL version 420,2013-04-11 05:19:00,
2013-04-11 01:24:00,74.8,67.1,29.94,North,-999,-999.0,-999.0,77,0.00,,,0.00,WSDL version 420,2013-04-11 05:24:00,
2013-04-11 01:29:00,74.7,67.0,29.94,North,-999,-999.0,-999.0,77,0.00,,,0.00,WSDL version 420,2013-04-11 05:29:00,
2013-04-11 01:34:00,74.7,67.2,29.94,North,-999,-999.0,-999.0,78,0.00,,,0.00,WSDL version 420,2013-04-11 05:34:00,
2013-04-11 01:39:00,74.6,67.3,29.94,North,-999,-999.0,-999.0,78,0.00,,,0.00,WSDL version 420,2013-04-11 05:39:00,
2013-04-11 01:44:00,74.5,67.2,29.94,North,-999,-999.0,-999.0,78,0.00,,,0.00,WSDL version 420,2013-04-11 05:44:00,
2013-04-11 01:49:00,74.5,67.2,29.94,North,-999,-999.0,-999.0,78,0.00,,,0.00,WSDL version 420,2013-04-11 05:49:00,
2013-04-11 01:54:00,74.5,67.5,29.94,North,-999,-999.0,-999.0,79,0.00,,,0.00,WSDL version 420,2013-04-11 05:54:00,
2013-04-11 01:59:00,74.5,67.5,29.94,North,-999,-999.0,-999.0,79,0.00,,,0.00,WSDL version 420,2013-04-11 05:59:00,
2013-04-11 02:04:00,74.5,67.5,29.94,North,-999,-999.0,-999.0,79,0.00,,,0.00,WSDL version 420,2013-04-11 06:04:00,
2013-04-11 02:09:00,74.4,67.5,29.94,North,-999,-999.0,-999.0,79,0.00,,,0.00,WSDL version 420,2013-04-11 06:09:00,
2013-04-11 02:14:00,74.3,67.4,29.94,North,-999,-999.0,-999.0,79,0.00,,,0.00,WSDL version 420,2013-04-11 06:14:00,
2013-04-11 02:19:00,74.3,67.4,29.94,North,-999,-999.0,-999.0,79,0.00,,,0.00,WSDL version 420,2013-04-11 06:19:00,
2013-04-11 02:24:00,74.3,67.4,29.94,North,-999,-999.0,-999.0,79,0.00,,,0.00,WSDL version 420,2013-04-11 06:24:00,
2013-04-11 02:29:00,74.3,67.5,29.94,North,-999,-999.0,-999.0,79,0.00,,,0.00,WSDL version 420,2013-04-11 06:29:00,
2013-04-11 02:34:00,74.3,67.4,29.94,North,-999,-999.0,-999.0,79,0.00,,,0.00,WSDL version 420,2013-04-11 06:34:00,
2013-04-11 02:39:00,74.3,67.4,29.94,North,-999,-999.0,-999.0,79,0.00,,,0.00,WSDL version 420,2013-04-11 06:39:00,
2013-04-11 02:44:00,74.3,67.4,29.94,North,-999,-999.0,-999.0,79,0.00,,,0.00,WSDL version 420,2013-04-11 06:44:00,
2013-04-11 02:49:00,74.3,67.4,29.94,North,-999,-999.0,-999.0,79,0.00,,,0.00,WSDL version 420,2013-04-11 06:49:00,
2013-04-11 02:54:00,74.3,67.4,29.94,North,-999,-999.0,-999.0,79,0.00,,,0.00,WSDL version 420,2013-04-11 06:54:00,
2013-04-11 02:59:00,74.3,67.4,29.94,North,-999,-999.0,-999.0,79,0.00,,,0.00,WSDL version 420,2013-04-11 06:59:00,
2013-04-11 03:04:00,74.3,67.2,29.94,North,-999,-999.0,-999.0,78,0.00,,,0.00,WSDL version 420,2013-04-11 07:04:00,
2013-04-11 03:09:00,74.1,66.8,29.91,North,-999,-999.0,-999.0,78,0.00,,,0.00,WSDL version 420,2013-04-11 07:09:00,
2013-04-11 03:14:00,74.1,66.8,29.91,North,-999,-999.0,-999.0,78,0.00,,,0.00,WSDL version 420,2013-04-11 07:14:00,
2013-04-11 03:19:00,74.1,66.8,29.91,North,-999,-999.0,-999.0,78,0.00,,,0.00,WSDL version 420,2013-04-11 07:19:00,
2013-04-11 03:24:00,74.1,66.8,29.91,North,-999,-999.0,-999.0,78,0.00,,,0.00,WSDL version 420,2013-04-11 07:24:00,
2013-04-11 03:29:00,73.9,66.7,29.91,North,-999,-999.0,-999.0,78,0.00,,,0.00,WSDL version 420,2013-04-11 07:29:00,
2013-04-11 03:34:00,73.9,66.6,29.91,North,-999,-999.0,-999.0,78,0.00,,,0.00,WSDL version 420,2013-04-11 07:34:00,
2013-04-11 03:39:00,73.8,66.5,29.91,North,-999,-999.0,-999.0,78,0.00,,,0.00,WSDL version 420,2013-04-11 07:39:00,
2013-04-11 03:44:00,73.8,66.5,29.91,North,-999,-999.0,-999.0,78,0.00,,,0.00,WSDL version 420,2013-04-11 07:44:00,
2013-04-11 03:49:00,73.9,66.6,29.91,North,-999,-999.0,-999.0,78,0.00,,,0.00,WSDL version 420,2013-04-11 07:49:00,
2013-04-11 03:54:00,73.9,66.2,29.91,North,-999,-999.0,-999.0,77,0.00,,,0.00,WSDL version 420,2013-04-11 07:54:00,
2013-04-11 03:59:00,73.8,66.1,29.91,North,-999,-999.0,-999.0,77,0.00,,,0.00,WSDL version 420,2013-04-11 07:59:00,
2013-04-11 04:04:00,73.8,66.1,29.91,North,-999,-999.0,-999.0,77,0.00,,,0.00,WSDL version 420,2013-04-11 08:04:00,
2013-04-11 04:09:00,73.6,66.3,29.91,North,-999,-999.0,-999.0,78,0.00,,,0.00,WSDL version 420,2013-04-11 08:09:00,
2013-04-11 04:14:00,73.6,66.3,29.91,North,-999,-999.0,-999.0,78,0.00,,,0.00,WSDL version 420,2013-04-11 08:14:00,
2013-04-11 04:19:00,73.6,66.3,29.91,North,-999,-999.0,-999.0,78,0.00,,,0.00,WSDL version 420,2013-04-11 08:19:00,
2013-04-11 04:24:00,73.4,66.2,29.91,North,-999,-999.0,-999.0,78,0.00,,,0.00,WSDL version 420,2013-04-11 08:24:00,
2013-04-11 04:29:00,73.6,66.3,29.91,North,-999,-999.0,-999.0,78,0.00,,,0.00,WSDL version 420,2013-04-11 08:29:00,
2013-04-11 04:34:00,73.4,66.2,29.91,North,-999,-999.0,-999.0,78,0.00,,,0.00,WSDL version 420,2013-04-11 08:34:00,
2013-04-11 04:39:00,73.4,66.1,29.91,North,-999,-999.0,-999.0,78,0.00,,,0.00,WSDL version 420,2013-04-11 08:39:00,
2013-04-11 04:44:00,73.2,66.0,29.91,North,-999,-999.0,-999.0,78,0.00,,,0.00,WSDL version 420,2013-04-11 08:44:00,
2013-04-11 04:49:00,73.2,66.1,29.91,North,-999,-999.0,-999.0,79,0.00,,,0.00,WSDL version 420,2013-04-11 08:49:00,
2013-04-11 04:54:00,73.2,66.3,29.91,North,-999,-999.0,-999.0,79,0.00,,,0.00,WSDL version 420,2013-04-11 08:54:00,
2013-04-11 04:59:00,73.2,66.3,29.91,North,-999,-999.0,-999.0,79,0.00,,,0.00,WSDL version 420,2013-04-11 08:59:00,
2013-04-11 05:04:00,73.2,66.3,29.91,North,-999,-999.0,-999.0,79,0.00,,,0.00,WSDL version 420,2013-04-11 09:04:00,
2013-04-11 05:09:00,73.2,66.3,29.91,North,-999,-999.0,-999.0,79,0.00,,,0.00,WSDL version 420,2013-04-11 09:09:00,
2013-04-11 05:14:00,73.2,66.6,29.91,North,-999,-999.0,-999.0,80,0.00,,,0.00,WSDL version 420,2013-04-11 09:14:00,
2013-04-11 05:19:00,73.2,66.6,29.91,North,-999,-999.0,-999.0,79,0.00,,,0.00,WSDL version 420,2013-04-11 09:19:00,
2013-04-11 05:24:00,73.2,66.5,29.91,North,-999,-999.0,-999.0,79,0.00,,,0.00,WSDL version 420,2013-04-11 09:24:00,
2013-04-11 05:29:00,73.2,66.3,29.91,North,-999,-999.0,-999.0,79,0.00,,,0.00,WSDL version 420,2013-04-11 09:29:00,
2013-04-11 05:34:00,73.2,66.3,29.91,North,-999,-999.0,-999.0,79,0.00,,,0.00,WSDL version 420,2013-04-11 09:34:00,
2013-04-11 05:39:00,73.2,66.4,29.91,North,-999,-999.0,-999.0,80,0.00,,,0.00,WSDL version 420,2013-04-11 09:39:00,
2013-04-11 05:44:00,73.2,66.7,29.91,North,-999,-999.0,-999.0,80,0.00,,,0.00,WSDL version 420,2013-04-11 09:44:00,
2013-04-11 05:49:00,73.2,66.7,29.91,North,-999,-999.0,-999.0,80,0.00,,,0.00,WSDL version 420,2013-04-11 09:49:00,
2013-04-11 05:54:00,73.2,66.7,29.91,North,-999,-999.0,-999.0,80,0.00,,,0.00,WSDL version 420,2013-04-11 09:54:00,
2013-04-11 05:59:00,73.2,66.7,29.91,North,-999,-999.0,-999.0,80,0.00,,,0.00,WSDL version 420,2013-04-11 09:59:00,
2013-04-11 06:04:00,73.2,66.7,29.91,North,-999,-999.0,-999.0,80,0.00,,,0.00,WSDL version 420,2013-04-11 10:04:00,
2013-04-11 06:09:00,73.2,66.7,29.91,North,-999,-999.0,-999.0,80,0.00,,,0.00,WSDL version 420,2013-04-11 10:09:00,
2013-04-11 06:14:00,73.2,66.7,29.91,North,-999,-999.0,-999.0,80,0.00,,,0.00,WSDL version 420,2013-04-11 10:14:00,
2013-04-11 06:19:00,73.4,66.9,29.91,North,-999,-999.0,-999.0,80,0.00,,,0.00,WSDL version 420,2013-04-11 10:19:00,
2013-04-11 06:24:00,73.4,66.9,29.94,North,-999,-999.0,-999.0,80,0.00,,,0.00,WSDL version 420,2013-04-11 10:24:00,
2013-04-11 06:29:00,73.4,66.9,29.94,North,-999,-999.0,-999.0,80,0.00,,,0.00,WSDL version 420,2013-04-11 10:29:00,
2013-04-11 06:34:00,73.4,66.9,29.94,North,-999,-999.0,-999.0,80,0.00,,,0.00,WSDL version 420,2013-04-11 10:34:00,
2013-04-11 06:39:00,73.2,66.7,29.94,North,-999,-999.0,-999.0,80,0.00,,,0.00,WSDL version 420,2013-04-11 10:39:00,
2013-04-11 06:44:00,73.2,67.1,29.94,North,-999,-999.0,-999.0,81,0.00,,,0.00,WSDL version 420,2013-04-11 10:44:00,
2013-04-11 06:49:00,73.2,67.1,29.94,North,-999,-999.0,-999.0,81,0.00,,,0.00,WSDL version 420,2013-04-11 10:49:00,
2013-04-11 06:54:00,73.2,67.1,29.94,North,-999,-999.0,-999.0,81,0.00,,,0.00,WSDL version 420,2013-04-11 10:54:00,
2013-04-11 06:59:00,73.2,67.1,29.94,North,-999,-999.0,-999.0,81,0.00,,,0.00,WSDL version 420,2013-04-11 10:59:00,
2013-04-11 07:04:00,73.2,67.1,29.94,North,-999,-999.0,-999.0,81,0.00,,,0.00,WSDL version 420,2013-04-11 11:04:00,
2013-04-11 07:09:00,73.3,66.9,29.94,North,-999,-999.0,-999.0,80,0.00,,,0.00,WSDL version 420,2013-04-11 11:09:00,
2013-04-11 07:14:00,73.4,66.9,29.94,North,-999,-999.0,-999.0,80,0.00,,,0.00,WSDL version 420,2013-04-11 11:14:00,
2013-04-11 07:19:00,73.4,66.9,29.94,North,-999,-999.0,-999.0,80,0.00,,,0.00,WSDL version 420,2013-04-11 11:19:00,
2013-04-11 07:24:00,73.5,67.0,29.94,North,-999,-999.0,-999.0,80,0.00,,,0.00,WSDL version 420,2013-04-11 11:24:00,
2013-04-11 07:29:00,73.6,67.0,29.94,North,-999,-999.0,-999.0,80,0.00,,,0.00,WSDL version 420,2013-04-11 11:29:00,
2013-04-11 07:34:00,73.6,67.1,29.94,North,-999,-999.0,-999.0,80,0.00,,,0.00,WSDL version 420,2013-04-11 11:34:00,
2013-04-11 07:39:00,73.9,67.3,29.94,North,-999,-999.0,-999.0,80,0.00,,,0.00,WSDL version 420,2013-04-11 11:39:00,
2013-04-11 07:44:00,74.1,67.6,29.94,North,-999,-999.0,-999.0,80,0.00,,,0.00,WSDL version 420,2013-04-11 11:44:00,
2013-04-11 07:49:00,74.1,67.2,29.94,North,-999,-999.0,-999.0,79,0.00,,,0.00,WSDL version 420,2013-04-11 11:49:00,
2013-04-11 07:54:00,74.5,67.5,29.94,North,-999,-999.0,-999.0,79,0.00,,,0.00,WSDL version 420,2013-04-11 11:54:00,
2013-04-11 07:59:00,74.9,67.9,29.94,North,-999,-999.0,-999.0,78,0.00,,,0.00,WSDL version 420,2013-04-11 11:59:00,
2013-04-11 08:04:00,75.4,68.0,29.94,North,-999,-999.0,-999.0,77,0.00,,,0.00,WSDL version 420,2013-04-11 12:04:00,
2013-04-11 08:09:00,75.5,67.5,29.94,North,-999,-999.0,-999.0,76,0.00,,,0.00,WSDL version 420,2013-04-11 12:09:00,
2013-04-11 08:14:00,75.5,67.3,29.94,North,-999,-999.0,-999.0,76,0.00,,,0.00,WSDL version 420,2013-04-11 12:14:00,
2013-04-11 08:19:00,75.8,67.3,29.94,North,-999,-999.0,-999.0,75,0.00,,,0.00,WSDL version 420,2013-04-11 12:19:00,
2013-04-11 08:24:00,76.2,67.6,29.94,North,-999,-999.0,-999.0,74,0.00,,,0.00,WSDL version 420,2013-04-11 12:24:00,
2013-04-11 08:29:00,76.7,67.5,29.94,North,-999,-999.0,-999.0,73,0.00,,,0.00,WSDL version 420,2013-04-11 12:29:00,
2013-04-11 08:34:00,77.1,67.4,29.94,North,-999,-999.0,-999.0,71,0.00,,,0.00,WSDL version 420,2013-04-11 12:34:00,
2013-04-11 08:39:00,77.3,67.2,29.94,North,-999,-999.0,-999.0,71,0.00,,,0.00,WSDL version 420,2013-04-11 12:39:00,
2013-04-11 08:44:00,77.6,66.8,29.94,North,-999,-999.0,-999.0,70,0.00,,,0.00,WSDL version 420,2013-04-11 12:44:00,
2013-04-11 08:49:00,77.7,66.7,29.94,North,-999,-999.0,-999.0,69,0.00,,,0.00,WSDL version 420,2013-04-11 12:49:00,
2013-04-11 08:54:00,78.0,66.6,29.94,North,-999,-999.0,-999.0,68,0.00,,,0.00,WSDL version 420,2013-04-11 12:54:00,
2013-04-11 08:59:00,78.1,66.7,29.94,North,-999,-999.0,-999.0,68,0.00,,,0.00,WSDL version 420,2013-04-11 12:59:00,
2013-04-11 09:04:00,78.4,67.0,29.94,North,-999,-999.0,-999.0,68,0.00,,,0.00,WSDL version 420,2013-04-11 13:04:00,
2013-04-11 09:09:00,78.8,66.9,29.94,North,-999,-999.0,-999.0,67,0.00,,,0.00,WSDL version 420,2013-04-11 13:09:00,
2013-04-11 09:14:00,78.7,66.4,29.94,North,-999,-999.0,-999.0,66,0.00,,,0.00,WSDL version 420,2013-04-11 13:14:00,
2013-04-11 09:19:00,79.1,66.7,29.94,North,-999,-999.0,-999.0,66,0.00,,,0.00,WSDL version 420,2013-04-11 13:19:00,
2013-04-11 09:24:00,79.9,66.9,29.94,North,-999,-999.0,-999.0,64,0.00,,,0.00,WSDL version 420,2013-04-11 13:24:00,
2013-04-11 09:29:00,80.2,66.8,29.94,North,-999,-999.0,-999.0,64,0.00,,,0.00,WSDL version 420,2013-04-11 13:29:00,
2013-04-11 09:34:00,80.6,66.8,29.94,North,-999,-999.0,-999.0,62,0.00,,,0.00,WSDL version 420,2013-04-11 13:34:00,
2013-04-11 09:39:00,81.2,67.1,29.97,North,-999,-999.0,-999.0,62,0.00,,,0.00,WSDL version 420,2013-04-11 13:39:00,
2013-04-11 09:44:00,80.8,66.1,29.97,North,-999,-999.0,-999.0,61,0.00,,,0.00,WSDL version 420,2013-04-11 13:44:00,
2013-04-11 09:49:00,80.4,66.2,29.97,North,-999,-999.0,-999.0,62,0.00,,,0.00,WSDL version 420,2013-04-11 13:49:00,
2013-04-11 09:54:00,80.0,65.9,29.94,North,-999,-999.0,-999.0,63,0.00,,,0.00,WSDL version 420,2013-04-11 13:54:00,
2013-04-11 09:59:00,80.7,67.3,29.94,North,-999,-999.0,-999.0,64,0.00,,,0.00,WSDL version 420,2013-04-11 13:59:00,
2013-04-11 10:04:00,82.1,68.4,29.94,North,-999,-999.0,-999.0,63,0.00,,,0.00,WSDL version 420,2013-04-11 14:04:00,
2013-04-11 10:09:00,82.4,67.4,29.97,North,-999,-999.0,-999.0,59,0.00,,,0.00,WSDL version 420,2013-04-11 14:09:00,
2013-04-11 10:14:00,82.3,66.9,29.97,North,-999,-999.0,-999.0,59,0.00,,,0.00,WSDL version 420,2013-04-11 14:14:00,
2013-04-11 10:19:00,82.8,66.9,29.97,North,-999,-999.0,-999.0,59,0.00,,,0.00,WSDL version 420,2013-04-11 14:19:00,
2013-04-11 10:24:00,83.2,66.9,29.97,North,-999,-999.0,-999.0,58,0.00,,,0.00,WSDL version 420,2013-04-11 14:24:00,
2013-04-11 10:29:00,83.2,67.0,29.97,North,-999,-999.0,-999.0,59,0.00,,,0.00,WSDL version 420,2013-04-11 14:29:00,
2013-04-11 10:34:00,82.7,65.9,29.97,North,-999,-999.0,-999.0,57,0.00,,,0.00,WSDL version 420,2013-04-11 14:34:00,
2013-04-11 10:39:00,82.6,66.2,29.97,North,-999,-999.0,-999.0,58,0.00,,,0.00,WSDL version 420,2013-04-11 14:39:00,
2013-04-11 10:44:00,82.5,66.4,29.97,North,-999,-999.0,-999.0,58,0.00,,,0.00,WSDL version 420,2013-04-11 14:44:00,
2013-04-11 10:49:00,83.0,67.0,29.97,North,-999,-999.0,-999.0,58,0.00,,,0.00,WSDL version 420,2013-04-11 14:49:00,
2013-04-11 10:54:00,83.4,67.2,29.97,North,-999,-999.0,-999.0,58,0.00,,,0.00,WSDL version 420,2013-04-11 14:54:00,
2013-04-11 10:59:00,83.4,67.2,29.97,North,-999,-999.0,-999.0,58,0.00,,,0.00,WSDL version 420,2013-04-11 14:59:00,
2013-04-11 11:04:00,83.0,66.8,29.97,North,-999,-999.0,-999.0,58,0.00,,,0.00,WSDL version 420,2013-04-11 15:04:00,
2013-04-11 11:09:00,83.2,67.4,29.97,North,-999,-999.0,-999.0,60,0.00,,,0.00,WSDL version 420,2013-04-11 15:09:00,
2013-04-11 11:14:00,84.2,67.9,29.97,North,-999,-999.0,-999.0,57,0.00,,,0.00,WSDL version 420,2013-04-11 15:14:00,
2013-04-11 11:19:00,84.1,66.6,29.97,North,-999,-999.0,-999.0,55,0.00,,,0.00,WSDL version 420,2013-04-11 15:19:00,
2013-04-11 11:24:00,84.2,66.6,29.97,North,-999,-999.0,-999.0,55,0.00,,,0.00,WSDL version 420,2013-04-11 15:24:00,
2013-04-11 11:29:00,84.6,67.2,29.97,North,-999,-999.0,-999.0,56,0.00,,,0.00,WSDL version 420,2013-04-11 15:29:00,
2013-04-11 11:39:00,84.9,66.9,29.97,North,-999,-999.0,-999.0,55,0.00,,,0.00,WSDL version 420,2013-04-11 15:39:00,
2013-04-11 11:44:00,85.0,67.1,29.97,North,-999,-999.0,-999.0,54,0.00,,,0.00,WSDL version 420,2013-04-11 15:44:00,
2013-04-11 11:49:00,85.0,66.5,29.97,North,-999,-999.0,-999.0,53,0.00,,,0.00,WSDL version 420,2013-04-11 15:49:00,
2013-04-11 11:54:00,85.0,66.5,29.97,North,-999,-999.0,-999.0,54,0.00,,,0.00,WSDL version 420,2013-04-11 15:54:00,
2013-04-11 11:59:00,85.3,66.8,29.97,North,-999,-999.0,-999.0,54,0.00,,,0.00,WSDL version 420,2013-04-11 15:59:00,
2013-04-11 12:04:00,85.9,67.2,29.97,North,-999,-999.0,-999.0,53,0.00,,,0.00,WSDL version 420,2013-04-11 16:04:00,
2013-04-11 12:09:00,86.4,67.6,29.94,North,-999,-999.0,-999.0,52,0.00,,,0.00,WSDL version 420,2013-04-11 16:09:00,
2013-04-11 12:14:00,86.2,67.0,29.94,North,-999,-999.0,-999.0,53,0.00,,,0.00,WSDL version 420,2013-04-11 16:14:00,
2013-04-11 12:19:00,86.8,67.5,29.94,North,-999,-999.0,-999.0,52,0.00,,,0.00,WSDL version 420,2013-04-11 16:19:00,
2013-04-11 12:24:00,85.7,65.5,29.94,North,-999,-999.0,-999.0,51,0.00,,,0.00,WSDL version 420,2013-04-11 16:24:00,
2013-04-11 12:29:00,84.5,64.8,29.94,North,-999,-999.0,-999.0,52,0.00,,,0.00,WSDL version 420,2013-04-11 16:29:00,
2013-04-11 12:34:00,85.0,66.3,29.94,North,-999,-999.0,-999.0,54,0.00,,,0.00,WSDL version 420,2013-04-11 16:34:00,
2013-04-11 12:39:00,85.3,66.1,29.94,North,-999,-999.0,-999.0,53,0.00,,,0.00,WSDL version 420,2013-04-11 16:39:00,
2013-04-11 12:49:00,85.1,65.9,29.94,North,-999,-999.0,-999.0,53,0.00,,,0.00,WSDL version 420,2013-04-11 16:49:00,
2013-04-11 12:54:00,84.7,65.5,29.94,North,-999,-999.0,-999.0,53,0.00,,,0.00,WSDL version 420,2013-04-11 16:54:00,
2013-04-11 12:59:00,85.3,67.3,29.94,North,-999,-999.0,-999.0,56,0.00,,,0.00,WSDL version 420,2013-04-11 16:59:00,
2013-04-11 13:04:00,86.6,67.9,29.94,North,-999,-999.0,-999.0,52,0.00,,,0.00,WSDL version 420,2013-04-11 17:04:00,
2013-04-11 13:09:00,86.1,66.3,29.91,North,-999,-999.0,-999.0,52,0.00,,,0.00,WSDL version 420,2013-04-11 17:09:00,
2013-04-11 13:14:00,86.1,66.4,29.91,North,-999,-999.0,-999.0,51,0.00,,,0.00,WSDL version 420,2013-04-11 17:14:00,
2013-04-11 13:19:00,86.2,66.3,29.91,North,-999,-999.0,-999.0,52,0.00,,,0.00,WSDL version 420,2013-04-11 17:19:00,
2013-04-11 13:24:00,85.2,65.2,29.94,North,-999,-999.0,-999.0,51,0.00,,,0.00,WSDL version 420,2013-04-11 17:24:00,
2013-04-11 13:29:00,86.5,67.8,29.94,North,-999,-999.0,-999.0,54,0.00,,,0.00,WSDL version 420,2013-04-11 17:29:00,
2013-04-11 13:34:00,86.5,66.6,29.94,North,-999,-999.0,-999.0,51,0.00,,,0.00,WSDL version 420,2013-04-11 17:34:00,
2013-04-11 13:39:00,86.7,66.8,29.94,North,-999,-999.0,-999.0,51,0.00,,,0.00,WSDL version 420,2013-04-11 17:39:00,
2013-04-11 13:44:00,86.6,66.6,29.94,North,-999,-999.0,-999.0,51,0.00,,,0.00,WSDL version 420,2013-04-11 17:44:00,
2013-04-11 13:49:00,86.3,65.6,29.94,North,-999,-999.0,-999.0,51,0.00,,,0.00,WSDL version 420,2013-04-11 17:49:00,
2013-04-11 13:54:00,86.1,65.9,29.94,North,-999,-999.0,-999.0,51,0.00,,,0.00,WSDL version 420,2013-04-11 17:54:00,
2013-04-11 13:59:00,85.3,64.9,29.94,North,-999,-999.0,-999.0,50,0.00,,,0.00,WSDL version 420,2013-04-11 17:59:00,
2013-04-11 14:04:00,85.6,65.9,29.94,North,-999,-999.0,-999.0,51,0.00,,,0.00,WSDL version 420,2013-04-11 18:04:00,
2013-04-11 14:09:00,85.4,65.4,29.94,North,-999,-999.0,-999.0,51,0.00,,,0.00,WSDL version 420,2013-04-11 18:09:00,
2013-04-11 14:14:00,85.5,65.7,29.94,North,-999,-999.0,-999.0,52,0.00,,,0.00,WSDL version 420,2013-04-11 18:14:00,
2013-04-11 14:19:00,85.5,65.7,29.94,North,-999,-999.0,-999.0,51,0.00,,,0.00,WSDL version 420,2013-04-11 18:19:00,
2013-04-11 14:24:00,85.0,64.6,29.91,North,-999,-999.0,-999.0,51,0.00,,,0.00,WSDL version 420,2013-04-11 18:24:00,
2013-04-11 14:34:00,86.3,66.2,29.91,North,-999,-999.0,-999.0,51,0.00,,,0.00,WSDL version 420,2013-04-11 18:34:00,
2013-04-11 14:39:00,86.4,66.0,29.88,North,-999,-999.0,-999.0,51,0.00,,,0.00,WSDL version 420,2013-04-11 18:39:00,
2013-04-11 14:44:00,86.7,66.4,29.88,North,-999,-999.0,-999.0,51,0.00,,,0.00,WSDL version 420,2013-04-11 18:44:00,
2013-04-11 14:49:00,86.5,66.2,29.88,North,-999,-999.0,-999.0,51,0.00,,,0.00,WSDL version 420,2013-04-11 18:49:00,
2013-04-11 14:54:00,87.0,67.3,29.88,North,-999,-999.0,-999.0,52,0.00,,,0.00,WSDL version 420,2013-04-11 18:54:00,
2013-04-11 14:59:00,87.6,67.6,29.88,North,-999,-999.0,-999.0,52,0.00,,,0.00,WSDL version 420,2013-04-11 18:59:00,
2013-04-11 15:04:00,88.2,67.2,29.88,North,-999,-999.0,-999.0,48,0.00,,,0.00,WSDL version 420,2013-04-11 19:04:00,
2013-04-11 15:09:00,87.2,64.8,29.88,North,-999,-999.0,-999.0,49,0.00,,,0.00,WSDL version 420,2013-04-11 19:09:00,
2013-04-11 15:14:00,87.0,64.9,29.88,North,-999,-999.0,-999.0,48,0.00,,,0.00,WSDL version 420,2013-04-11 19:14:00,
2013-04-11 15:19:00,87.1,65.6,29.88,North,-999,-999.0,-999.0,50,0.00,,,0.00,WSDL version 420,2013-04-11 19:19:00,
2013-04-11 15:24:00,87.3,65.8,29.88,North,-999,-999.0,-999.0,49,0.00,,,0.00,WSDL version 420,2013-04-11 19:24:00,
2013-04-11 15:29:00,87.6,66.5,29.88,North,-999,-999.0,-999.0,50,0.00,,,0.00,WSDL version 420,2013-04-11 19:29:00,
2013-04-11 15:34:00,87.2,65.4,29.88,North,-999,-999.0,-999.0,49,0.00,,,0.00,WSDL version 420,2013-04-11 19:34:00,
2013-04-11 15:39:00,87.3,65.5,29.85,North,-999,-999.0,-999.0,49,0.00,,,0.00,WSDL version 420,2013-04-11 19:39:00,
2013-04-11 15:44:00,87.3,65.2,29.85,North,-999,-999.0,-999.0,48,0.00,,,0.00,WSDL version 420,2013-04-11 19:44:00,
2013-04-11 15:49:00,87.6,66.3,29.85,North,-999,-999.0,-999.0,49,0.00,,,0.00,WSDL version 420,2013-04-11 19:49:00,
2013-04-11 15:54:00,87.6,65.7,29.88,North,-999,-999.0,-999.0,49,0.00,,,0.00,WSDL version 420,2013-04-11 19:54:00,
2013-04-11 15:59:00,87.4,65.9,29.88,North,-999,-999.0,-999.0,49,0.00,,,0.00,WSDL version 420,2013-04-11 19:59:00,
2013-04-11 16:04:00,85.7,65.0,29.88,North,-999,-999.0,-999.0,51,0.00,,,0.00,WSDL version 420,2013-04-11 20:04:00,
2013-04-11 16:09:00,86.1,65.9,29.88,North,-999,-999.0,-999.0,50,0.00,,,0.00,WSDL version 420,2013-04-11 20:09:00,
2013-04-11 16:14:00,86.0,65.7,29.88,North,-999,-999.0,-999.0,51,0.00,,,0.00,WSDL version 420,2013-04-11 20:14:00,
2013-04-11 16:19:00,86.2,66.2,29.88,North,-999,-999.0,-999.0,51,0.00,,,0.00,WSDL version 420,2013-04-11 20:19:00,
2013-04-11 16:24:00,86.0,65.9,29.88,North,-999,-999.0,-999.0,51,0.00,,,0.00,WSDL version 420,2013-04-11 20:24:00,
2013-04-11 16:34:00,85.2,65.5,29.88,North,-999,-999.0,-999.0,52,0.00,,,0.00,WSDL version 420,2013-04-11 20:34:00,
2013-04-11 16:39:00,85.6,65.8,29.85,North,-999,-999.0,-999.0,51,0.00,,,0.00,WSDL version 420,2013-04-11 20:39:00,
2013-04-11 16:44:00,85.9,65.8,29.85,North,-999,-999.0,-999.0,52,0.00,,,0.00,WSDL version 420,2013-04-11 20:44:00,
2013-04-11 16:49:00,86.1,66.2,29.85,North,-999,-999.0,-999.0,51,0.00,,,0.00,WSDL version 420,2013-04-11 20:49:00,
2013-04-11 16:54:00,86.0,65.9,29.85,North,-999,-999.0,-999.0,51,0.00,,,0.00,WSDL version 420,2013-04-11 20:54:00,
2013-04-11 16:59:00,86.0,66.3,29.85,North,-999,-999.0,-999.0,52,0.00,,,0.00,WSDL version 420,2013-04-11 20:59:00,
2013-04-11 17:04:00,85.3,65.7,29.85,North,-999,-999.0,-999.0,52,0.00,,,0.00,WSDL version 420,2013-04-11 21:04:00,
2013-04-11 17:09:00,84.6,65.4,29.85,North,-999,-999.0,-999.0,53,0.00,,,0.00,WSDL version 420,2013-04-11 21:09:00,
2013-04-11 17:14:00,85.0,66.1,29.85,North,-999,-999.0,-999.0,53,0.00,,,0.00,WSDL version 420,2013-04-11 21:14:00,
2013-04-11 17:19:00,84.7,65.4,29.85,North,-999,-999.0,-999.0,53,0.00,,,0.00,WSDL version 420,2013-04-11 21:19:00,
2013-04-11 17:24:00,84.5,65.9,29.85,North,-999,-999.0,-999.0,54,0.00,,,0.00,WSDL version 420,2013-04-11 21:24:00,
2013-04-11 17:29:00,84.3,65.9,29.85,North,-999,-999.0,-999.0,54,0.00,,,0.00,WSDL version 420,2013-04-11 21:29:00,
2013-04-11 17:34:00,84.3,66.0,29.85,North,-999,-999.0,-999.0,54,0.00,,,0.00,WSDL version 420,2013-04-11 21:34:00,
2013-04-11 17:39:00,83.9,65.7,29.88,North,-999,-999.0,-999.0,54,0.00,,,0.00,WSDL version 420,2013-04-11 21:39:00,
2013-04-11 17:49:00,83.1,65.8,29.88,North,-999,-999.0,-999.0,56,0.00,,,0.00,WSDL version 420,2013-04-11 21:49:00,
2013-04-11 17:54:00,83.1,66.2,29.85,North,-999,-999.0,-999.0,56,0.00,,,0.00,WSDL version 420,2013-04-11 21:54:00,
2013-04-11 17:59:00,82.4,65.7,29.85,North,-999,-999.0,-999.0,58,0.00,,,0.00,WSDL version 420,2013-04-11 21:59:00,
2013-04-11 18:04:00,82.1,65.9,29.85,North,-999,-999.0,-999.0,59,0.00,,,0.00,WSDL version 420,2013-04-11 22:04:00,
2013-04-11 18:09:00,81.6,66.1,29.85,North,-999,-999.0,-999.0,60,0.00,,,0.00,WSDL version 420,2013-04-11 22:09:00,
2013-04-11 18:14:00,81.3,66.1,29.85,North,-999,-999.0,-999.0,60,0.00,,,0.00,WSDL version 420,2013-04-11 22:14:00,
2013-04-11 18:19:00,81.2,66.0,29.85,North,-999,-999.0,-999.0,60,0.00,,,0.00,WSDL version 420,2013-04-11 22:19:00,
2013-04-11 18:24:00,80.7,66.0,29.85,North,-999,-999.0,-999.0,61,0.00,,,0.00,WSDL version 420,2013-04-11 22:24:00,
2013-04-11 18:29:00,80.1,66.2,29.85,North,-999,-999.0,-999.0,63,0.00,,,0.00,WSDL version 420,2013-04-11 22:29:00,
2013-04-11 18:34:00,80.1,66.3,29.85,North,-999,-999.0,-999.0,63,0.00,,,0.00,WSDL version 420,2013-04-11 22:34:00,
2013-04-11 18:39:00,79.9,66.4,29.85,North,-999,-999.0,-999.0,64,0.00,,,0.00,WSDL version 420,2013-04-11 22:39:00,
2013-04-11 18:44:00,79.6,66.4,29.85,North,-999,-999.0,-999.0,64,0.00,,,0.00,WSDL version 420,2013-04-11 22:44:00,
2013-04-11 18:49:00,79.3,66.6,29.85,North,-999,-999.0,-999.0,65,0.00,,,0.00,WSDL version 420,2013-04-11 22:49:00,
2013-04-11 18:54:00,79.2,66.5,29.85,North,-999,-999.0,-999.0,66,0.00,,,0.00,WSDL version 420,2013-04-11 22:54:00,
2013-04-11 18:59:00,79.2,66.8,29.85,North,-999,-999.0,-999.0,66,0.00,,,0.00,WSDL version 420,2013-04-11 22:59:00,
2013-04-11 19:04:00,79.2,66.8,29.85,North,-999,-999.0,-999.0,66,0.00,,,0.00,WSDL version 420,2013-04-11 23:04:00,
2013-04-11 19:09:00,79.0,67.1,29.85,North,-999,-999.0,-999.0,67,0.00,,,0.00,WSDL version 420,2013-04-11 23:09:00,
2013-04-11 19:14:00,79.0,67.1,29.85,North,-999,-999.0,-999.0,67,0.00,,,0.00,WSDL version 420,2013-04-11 23:14:00,
2013-04-11 19:19:00,78.8,66.9,29.85,North,-999,-999.0,-999.0,67,0.00,,,0.00,WSDL version 420,2013-04-11 23:19:00,
2013-04-11 19:24:00,78.6,67.2,29.85,North,-999,-999.0,-999.0,68,0.00,,,0.00,WSDL version 420,2013-04-11 23:24:00,
2013-04-11 19:29:00,78.4,67.0,29.85,North,-999,-999.0,-999.0,68,0.00,,,0.00,WSDL version 420,2013-04-11 23:29:00,
2013-04-11 19:34:00,78.3,67.2,29.85,North,-999,-999.0,-999.0,69,0.00,,,0.00,WSDL version 420,2013-04-11 23:34:00,
2013-04-11 19:39:00,78.1,67.3,29.85,North,-999,-999.0,-999.0,69,0.00,,,0.00,WSDL version 420,2013-04-11 23:39:00,
2013-04-11 19:44:00,77.9,67.3,29.85,North,-999,-999.0,-999.0,70,0.00,,,0.00,WSDL version 420,2013-04-11 23:44:00,
2013-04-11 19:49:00,77.8,67.4,29.85,North,-999,-999.0,-999.0,71,0.00,,,0.00,WSDL version 420,2013-04-11 23:49:00,
2013-04-11 19:54:00,77.7,67.6,29.85,North,-999,-999.0,-999.0,71,0.00,,,0.00,WSDL version 420,2013-04-11 23:54:00,
2013-04-11 19:59:00,77.6,67.5,29.85,North,-999,-999.0,-999.0,71,0.00,,,0.00,WSDL version 420,2013-04-11 23:59:00,
2013-04-11 20:04:00,77.4,67.5,29.85,North,-999,-999.0,-999.0,72,0.00,,,0.00,WSDL version 420,2013-04-12 00:04:00,
2013-04-11 20:09:00,77.4,67.6,29.85,North,-999,-999.0,-999.0,72,0.00,,,0.00,WSDL version 420,2013-04-12 00:09:00,
2013-04-11 20:14:00,77.2,67.7,29.85,North,-999,-999.0,-999.0,73,0.00,,,0.00,WSDL version 420,2013-04-12 00:14:00,
2013-04-11 20:19:00,77.1,68.0,29.85,North,-999,-999.0,-999.0,74,0.00,,,0.00,WSDL version 420,2013-04-12 00:19:00,
2013-04-11 20:24:00,76.9,68.0,29.85,North,-999,-999.0,-999.0,74,0.00,,,0.00,WSDL version 420,2013-04-12 00:24:00,
2013-04-11 20:29:00,76.8,68.1,29.85,North,-999,-999.0,-999.0,75,0.00,,,0.00,WSDL version 420,2013-04-12 00:29:00,
2013-04-11 20:34:00,76.6,68.3,29.85,North,-999,-999.0,-999.0,76,0.00,,,0.00,WSDL version 420,2013-04-12 00:34:00,
2013-04-11 20:39:00,76.6,68.5,29.85,North,-999,-999.0,-999.0,76,0.00,,,0.00,WSDL version 420,2013-04-12 00:39:00,
2013-04-11 20:44:00,76.6,68.7,29.85,North,-999,-999.0,-999.0,77,0.00,,,0.00,WSDL version 420,2013-04-12 00:44:00,
2013-04-11 20:49:00,76.6,68.9,29.85,North,-999,-999.0,-999.0,77,0.00,,,0.00,WSDL version 420,2013-04-12 00:49:00,
2013-04-11 20:54:00,76.6,68.8,29.85,North,-999,-999.0,-999.0,77,0.00,,,0.00,WSDL version 420,2013-04-12 00:54:00,
2013-04-11 20:59:00,76.5,68.7,29.85,North,-999,-999.0,-999.0,77,0.00,,,0.00,WSDL version 420,2013-04-12 00:59:00,
2013-04-11 21:04:00,76.5,68.7,29.85,North,-999,-999.0,-999.0,77,0.00,,,0.00,WSDL version 420,2013-04-12 01:04:00,
2013-04-11 21:09:00,76.5,68.7,29.85,North,-999,-999.0,-999.0,77,0.00,,,0.00,WSDL version 420,2013-04-12 01:09:00,
2013-04-11 21:14:00,76.5,69.1,29.85,North,-999,-999.0,-999.0,78,0.00,,,0.00,WSDL version 420,2013-04-12 01:14:00,
2013-04-11 21:19:00,76.5,68.8,29.85,North,-999,-999.0,-999.0,77,0.00,,,0.00,WSDL version 420,2013-04-12 01:19:00,
2013-04-11 21:24:00,76.5,69.0,29.85,North,-999,-999.0,-999.0,78,0.00,,,0.00,WSDL version 420,2013-04-12 01:24:00,
2013-04-11 21:29:00,76.5,69.1,29.85,North,-999,-999.0,-999.0,78,0.00,,,0.00,WSDL version 420,2013-04-12 01:29:00,
2013-04-11 21:34:00,76.4,69.0,29.85,North,-999,-999.0,-999.0,78,0.00,,,0.00,WSDL version 420,2013-04-12 01:34:00,
2013-04-11 21:39:00,76.3,69.1,29.85,North,-999,-999.0,-999.0,79,0.00,,,0.00,WSDL version 420,2013-04-12 01:39:00,
2013-04-11 21:44:00,76.3,69.1,29.85,North,-999,-999.0,-999.0,79,0.00,,,0.00,WSDL version 420,2013-04-12 01:44:00,
2013-04-11 21:49:00,76.3,69.3,29.85,North,-999,-999.0,-999.0,79,0.00,,,0.00,WSDL version 420,2013-04-12 01:49:00,
2013-04-11 21:54:00,76.3,69.3,29.85,North,-999,-999.0,-999.0,79,0.00,,,0.00,WSDL version 420,2013-04-12 01:54:00,
2013-04-11 21:59:00,76.3,69.1,29.85,North,-999,-999.0,-999.0,79,0.00,,,0.00,WSDL version 420,2013-04-12 01:59:00,
2013-04-11 22:04:00,76.2,69.2,29.85,North,-999,-999.0,-999.0,79,0.00,,,0.00,WSDL version 420,2013-04-12 02:04:00,
2013-04-11 22:09:00,76.1,69.1,29.85,North,-999,-999.0,-999.0,79,0.00,,,0.00,WSDL version 420,2013-04-12 02:09:00,
2013-04-11 22:14:00,76.1,69.1,29.85,North,-999,-999.0,-999.0,79,0.00,,,0.00,WSDL version 420,2013-04-12 02:14:00,
2013-04-11 22:19:00,76.2,69.4,29.85,North,-999,-999.0,-999.0,80,0.00,,,0.00,WSDL version 420,2013-04-12 02:19:00,
2013-04-11 22:24:00,76.1,69.5,29.85,North,-999,-999.0,-999.0,80,0.00,,,0.00,WSDL version 420,2013-04-12 02:24:00,
2013-04-11 22:29:00,76.1,69.5,29.85,North,-999,-999.0,-999.0,80,0.00,,,0.00,WSDL version 420,2013-04-12 02:29:00,
2013-04-11 22:34:00,76.1,69.5,29.85,North,-999,-999.0,-999.0,80,0.00,,,0.00,WSDL version 420,2013-04-12 02:34:00,
2013-04-11 22:39:00,76.1,69.5,29.85,North,-999,-999.0,-999.0,80,0.00,,,0.00,WSDL version 420,2013-04-12 02:39:00,
2013-04-11 22:44:00,76.1,69.5,29.85,North,-999,-999.0,-999.0,80,0.00,,,0.00,WSDL version 420,2013-04-12 02:44:00,
2013-04-11 22:49:00,76.1,69.5,29.85,North,-999,-999.0,-999.0,80,0.00,,,0.00,WSDL version 420,2013-04-12 02:49:00,
2013-04-11 22:54:00,76.1,69.5,29.85,North,-999,-999.0,-999.0,80,0.00,,,0.00,WSDL version 420,2013-04-12 02:54:00,
2013-04-11 22:59:00,76.1,69.5,29.85,North,-999,-999.0,-999.0,80,0.00,,,0.00,WSDL version 420,2013-04-12 02:59:00,
2013-04-11 23:04:00,76.1,69.5,29.85,North,-999,-999.0,-999.0,80,0.00,,,0.00,WSDL version 420,2013-04-12 03:04:00,
2013-04-11 23:09:00,76.1,69.5,29.85,North,-999,-999.0,-999.0,80,0.00,,,0.00,WSDL version 420,2013-04-12 03:09:00,
2013-04-11 23:14:00,76.1,69.5,29.85,North,-999,-999.0,-999.0,80,0.00,,,0.00,WSDL version 420,2013-04-12 03:14:00,
2013-04-11 23:19:00,76.1,69.5,29.85,North,-999,-999.0,-999.0,80,0.00,,,0.00,WSDL version 420,2013-04-12 03:19:00,
2013-04-11 23:24:00,76.1,69.4,29.85,North,-999,-999.0,-999.0,79,0.00,,,0.00,WSDL version 420,2013-04-12 03:24:00,
2013-04-11 23:29:00,76.1,69.1,29.85,North,-999,-999.0,-999.0,79,0.00,,,0.00,WSDL version 420,2013-04-12 03:29:00,
2013-04-11 23:34:00,75.9,69.1,29.85,North,-999,-999.0,-999.0,80,0.00,,,0.00,WSDL version 420,2013-04-12 03:34:00,
2013-04-11 23:39:00,76.0,69.3,29.85,North,-999,-999.0,-999.0,80,0.00,,,0.00,WSDL version 420,2013-04-12 03:39:00,
2013-04-11 23:44:00,76.1,69.4,29.85,North,-999,-999.0,-999.0,80,0.00,,,0.00,WSDL version 420,2013-04-12 03:44:00,
2013-04-11 23:49:00,76.1,69.5,29.85,North,-999,-999.0,-999.0,80,0.00,,,0.00,WSDL version 420,2013-04-12 03:49:00,
2013-04-11 23:54:00,76.0,69.4,29.85,North,-999,-999.0,-999.0,80,0.00,,,0.00,WSDL version 420,2013-04-12 03:54:00,
2013-04-11 23:59:00,75.9,69.3,29.85,North,-999,-999.0,-999.0,80,0.00,,,0.00,WSDL version 420,2013-04-12 03:59:00,